Regional Weather Roundup
Issued by NWS

Home | Current Version | Previous Version | Graphics & Text | Print | Product List | Glossary On
Versions: 1 2 3 4 5 6 7 8 9 10 11 12 13 14 15 16 17 18 19 20 21 22 23 24 25 26 27 28 29 30 31 32 33 34 35 36 37 38 39 40 41 42 43 44 45 46 47 48 49 50
023
ASUS45 KPSR 201810
RWRAZ

ARIZONA HOURLY REGIONAL WEATHER ROUNDUP
NATIONAL WEATHER SERVICE PHOENIX AZ
1100 AM MST SAT JAN 20 2018

NOTE: FAIR INDICATES FEW OR NO CLOUDS BELOW 12,000 FEET WITH NO
SIGNIFICANT WEATHER AND/OR OBSTRUCTIONS TO VISIBILITY.

AZZ001>003-036-201900-
NORTHWEST ARIZONA

CITY           SKY/WX    TMP DP  RH WIND       PRES   REMARKS
BULLHEAD CITY  MOSUNNY   61  28  29 S16       29.88R
KINGMAN        SUNNY     49  22  34 SW16G26   29.87R
$$

AZZ004>008-015-016-018-201900-
NORTH CENTRAL ARIZONA

CITY           SKY/WX    TMP DP  RH WIND       PRES   REMARKS
GRAND CANYON   SNOW      32  32 100 S15G23    29.84S VSB 1/2 WCI  22
6HR MIN TEMP:  32; 6HR MAX TEMP:  40; 6HR PCP:  0.08;

WILLIAMS       SNOW      32  30  93 S17G28    29.84S VSB 1/4 WCI  21
PRESCOTT       CLOUDY    38  32  79 S15G21    29.88F WCI  29
6HR MIN TEMP:  35; 6HR MAX TEMP:  49; 6HR PCP:  0.06;

FLAGSTAFF      LGT SNOW  31  30  96 SW16      29.85S VSB 3/4 WCI  20
6HR MIN TEMP:  31; 6HR MAX TEMP:  40; 6HR PCP:  0.14;

PAYSON         RAIN      39  34  81 S8G15     29.92R WCI  34
PAGE           CLOUDY    51  33  50 S14G24    29.75R
6HR MIN TEMP:  47; 6HR MAX TEMP:  53;

$$

AZZ009>014-017-201900-
NORTHEAST ARIZONA

CITY           SKY/WX    TMP DP  RH WIND       PRES   REMARKS
WINSLOW        MOSUNNY   50  32  50 S36G45    29.84F
6HR MIN TEMP:  32; 6HR MAX TEMP:  51;

SAINT JOHNS    PTSUNNY   55  22  27 SW22G29   29.89F
6HR MIN TEMP:  22; 6HR MAX TEMP:  55;

WINDOW ROCK    PTSUNNY   52  20  28 S20G36    29.89F
6HR MIN TEMP:  28; 6HR MAX TEMP:  52;

SHOW LOW       CLOUDY    48  19  32 S23G33    29.93F
$$

AZZ540-542>544-546-548-201900-
GREATER PHOENIX AREA

CITY           SKY/WX    TMP DP  RH WIND       PRES   REMARKS
PHOENIX        CLOUDY    60  39  45 W8        29.91R
6HR MIN TEMP:  56; 6HR MAX TEMP:  60;

BUCKEYE        CLOUDY    57  37  47 NW3       29.95S
LUKE AFB       CLOUDY    57  39  50 SW13      29.92R
6HR MIN TEMP:  48; 6HR MAX TEMP:  57;

DEER VALLEY    LGT RAIN  54  44  69 NW6       29.92R
6HR MIN TEMP:  54; 6HR MAX TEMP:  59; 6HR PCP: TRACE;

SCOTTSDALE     LGT RAIN  56  41  57 W6        29.94R
6HR MIN TEMP:  54; 6HR MAX TEMP:  58; 6HR PCP: TRACE;

MESA-FALCON    CLOUDY    57  43  58 S5        29.93R
MESA-GATEWAY   LGT RAIN  57  39  51 SW16      29.95R
CHANDLER       PTSUNNY   57  36  44 SW14      29.93R
$$

AZZ539-553-201900-
SOUTHWEST MARICOPA COUNTY AND PINAL COUNTY

CITY           SKY/WX    TMP DP  RH WIND       PRES   REMARKS
CASA GRANDE    NOT AVBL
GILA BEND      CLOUDY    56  32  39 SW15      29.96S
6HR MIN TEMP:  56; 6HR MAX TEMP:  60;

$$

AZZ503-504-507>509-201900-
SOUTHEAST ARIZONA

CITY           SKY/WX    TMP DP  RH WIND       PRES   REMARKS
TUCSON         CLOUDY    69  28  21 SW18G29   29.95F
6HR MIN TEMP:  47; 6HR MAX TEMP:  69;

DAVIS-MONTHAN  PTSUNNY   67  27  22 S12G21    29.93F
6HR MIN TEMP:  47; 6HR MAX TEMP:  67;

RYAN FIELD     MOSUNNY   66  30  26 SW22G28   29.95F
NOGALES        CLOUDY    61  29  29 SW16G28   29.99F
6HR MIN TEMP:  49; 6HR MAX TEMP:  62;

SIERRA VISTA   PTSUNNY   61  21  21 SW14G20   30.01F
6HR MIN TEMP:  48; 6HR MAX TEMP:  62;

DOUGLAS        SUNNY     63  23  21 S15G23    30.01F
6HR MIN TEMP:  38; 6HR MAX TEMP:  64;

SAFFORD        MOSUNNY   65  20  17 E10G22    29.93F
6HR MIN TEMP:  33; 6HR MAX TEMP:  65;

$$

AZZ532-201900-
SOUTHWEST ARIZONA

CITY           SKY/WX    TMP DP  RH WIND       PRES   REMARKS
YUMA           SUNNY     62  33  33 W20G29    29.98S
6HR MIN TEMP:  53; 6HR MAX TEMP:  62;

$$

CAZ041-043-047-048-061-525>527-560>570-201900-
SOUTHERN CALIFORNIA

CITY           SKY/WX    TMP DP  RH WIND       PRES   REMARKS
DOWNTOWN L.A.  SUNNY     58  30  34 VRB7      30.05R
6HR MIN TEMP:  51; 6HR MAX TEMP:  58;

L.A. AIRPORT   MOSUNNY   58  30  34 N17G26    30.06R
6HR MIN TEMP:  53; 6HR MAX TEMP:  59;

SAN DIEGO      PTSUNNY   61  39  44 W16       30.08R
6HR MIN TEMP:  57; 6HR MAX TEMP:  61;

BURBANK        SUNNY     54  31  41 NW14G23   30.04R
6HR MIN TEMP:  49; 6HR MAX TEMP:  55;

ONTARIO        PTSUNNY   51  35  54 SW3       30.02R
6HR MIN TEMP:  49; 6HR MAX TEMP:  52; 6HR PCP: TRACE;

RIVERSIDE      MOSUNNY   54  38  54 NW5       30.02R
6HR MIN TEMP:  47; 6HR MAX TEMP:  54; 6HR PCP:  0.01;

PALM SPRINGS   LGT RAIN  58  33  39 W6        29.99S
6HR MIN TEMP:  51; 6HR MAX TEMP:  59;

EL CENTRO NAS  MOSUNNY   65  29  25 W13G18    30.02R
6HR MIN TEMP:  55; 6HR MAX TEMP:  65; 6HR PCP: TRACE;

IMPERIAL       SUNNY     63  33  32 W17       29.99R
6HR MIN TEMP:  54; 6HR MAX TEMP:  63;

BLYTHE         MOSUNNY   61  30  31 W15       29.96S
6HR MIN TEMP:  51; 6HR MAX TEMP:  61;

NEEDLES        SUNNY     61  27  27 W17       29.90R
6HR MIN TEMP:  54; 6HR MAX TEMP:  61;

$$

NVZ020-UTZ003-201900-
SOUTHERN NEVADA-UTAH

CITY           SKY/WX    TMP DP  RH WIND       PRES   REMARKS
LAS VEGAS      PTSUNNY   51  30  44 SE6       29.87R
6HR MIN TEMP:  48; 6HR MAX TEMP:  53;

SALT LAKE CITY LGT SNOW  33  29  85 NW10      29.89F FOG     WCI  25
6HR MIN TEMP:  31; 6HR MAX TEMP:  33; 6HR PCP:  0.11;

$$

NMZ009-TXZ055-201900-
NEW MEXICO-WEST TEXAS

CITY           SKY/WX    TMP DP  RH WIND       PRES   REMARKS
ALBUQUERQUE    MOSUNNY   47  15  27 W3        29.98F
6HR MIN TEMP:  30; 6HR MAX TEMP:  47;

EL PASO        MOSUNNY   56  19  23 S7        30.02F
6HR MIN TEMP:  33; 6HR MAX TEMP:  57;

$$


........................KEY........................
SKY/WX - SKY CONDITION/WEATHER
TMP    - TEMPERATURE IN FAHRENHEIT
DP     - DEW POINT IN FAHRENHEIT
RH     - RELATIVE HUMIDITY IN PERCENT
WIND   - DIRECTION AND SPEED IN MILES PER HOUR (MPH)
VRB    - VARIABLE WIND DIRECTION
PRES   - MEAN SEA LEVEL PRESSURE IN INCHES OF MERCURY
         F - FALLING PRESSURE   R - RISING PRESSURE
         S - STEADY PRESSURE
VSB    - VISIBILITY IN MILES
HX     - HEAT INDEX IN FAHRENHEIT
WCI    - WIND CHILL INDEX IN FAHRENHEIT
TC     - TEMPERATURE IN CELSIUS WHICH IS ALSO KNOWN AS
         TEMPERATURE IN CENTIGRADE
AFB    - AIR FORCE BASE
         LUKE AFB IS LUKE AIR FORCE BASE
         DAVIS-MONTHAN IS DAVIS-MONTHAN AIR FORCE BASE
NAS    - NAVAL AIR STATION
         EL CENTRO NAS IS EL CENTRO NAVAL AIR STATION
N/A    - NOT AVAILABLE





USA.gov is the U.S. government's official web portal to all federal, state and local government web resources and services.